TimeMST,TemperatureF,Dew PointF,Humidity,Sea Level PressureIn,VisibilityMPH,Wind Direction,Wind SpeedMPH,Gust SpeedMPH,PrecipitationIn,Events,Conditions,WindDirDegrees,DateUTC
12:53 AM,41.0,21.0,45,29.91,10.0,WSW,19.6,29.9,N/A,,Clear,250,2013-02-05 07:53:00
1:53 AM,39.0,21.0,49,29.91,10.0,WSW,18.4,25.3,N/A,,Clear,250,2013-02-05 08:53:00
2:53 AM,37.9,21.0,51,29.93,10.0,West,12.7,21.9,N/A,,Clear,260,2013-02-05 09:53:00
3:53 AM,39.0,19.9,46,29.92,10.0,WSW,21.9,-,N/A,,Clear,240,2013-02-05 10:53:00
4:53 AM,39.0,21.0,49,29.90,10.0,SW,25.3,38.0,N/A,,Clear,230,2013-02-05 11:53:00
5:53 AM,37.9,23.0,55,29.90,10.0,West,19.6,27.6,N/A,,Overcast,280,2013-02-05 12:53:00
6:51 AM,39.2,21.2,49,29.87,10.0,SSW,29.9,35.7,N/A,,Overcast,210,2013-02-05 13:51:00
6:53 AM,39.9,23.0,51,29.88,10.0,SSW,28.8,36.8,N/A,,Overcast,210,2013-02-05 13:53:00
7:53 AM,37.9,25.0,60,29.92,9.0,SSW,23.0,31.1,0.00,Snow,Light Snow,210,2013-02-05 14:53:00
8:53 AM,39.0,26.1,60,29.91,-9999.0,WSW,17.3,24.2,0.00,,Overcast,250,2013-02-05 15:53:00
9:53 AM,41.0,25.0,53,29.87,-9999.0,SW,20.7,27.6,N/A,,Overcast,220,2013-02-05 16:53:00
10:53 AM,44.1,24.1,45,29.86,-9999.0,SSW,27.6,34.5,N/A,,Scattered Clouds,210,2013-02-05 17:53:00
11:53 AM,45.0,24.1,44,29.83,10.0,SSW,21.9,34.5,N/A,,Scattered Clouds,210,2013-02-05 18:53:00
12:53 PM,46.9,24.1,41,29.80,10.0,SW,25.3,38.0,N/A,,Clear,220,2013-02-05 19:53:00
1:53 PM,48.0,23.0,37,29.77,10.0,SW,26.5,38.0,N/A,,Overcast,220,2013-02-05 20:53:00
2:53 PM,46.0,23.0,40,29.76,10.0,SW,28.8,39.1,N/A,,Overcast,220,2013-02-05 21:53:00
3:53 PM,46.0,23.0,40,29.74,10.0,SW,27.6,35.7,N/A,,Mostly Cloudy,220,2013-02-05 22:53:00
4:53 PM,45.0,21.9,40,29.73,10.0,SSW,27.6,34.5,N/A,,Clear,210,2013-02-05 23:53:00
5:53 PM,43.0,23.0,45,29.74,10.0,SSW,27.6,35.7,N/A,,Scattered Clouds,210,2013-02-06 00:53:00
6:53 PM,42.1,21.0,43,29.74,10.0,WSW,19.6,31.1,N/A,,Partly Cloudy,240,2013-02-06 01:53:00
7:53 PM,42.1,19.9,41,29.75,10.0,SW,24.2,36.8,N/A,,Mostly Cloudy,220,2013-02-06 02:53:00
8:53 PM,42.1,19.0,40,29.73,10.0,SW,25.3,35.7,N/A,,Clear,220,2013-02-06 03:53:00
9:53 PM,42.1,19.0,40,29.73,10.0,SSW,28.8,39.1,N/A,,Clear,210,2013-02-06 04:53:00
10:53 PM,42.1,19.0,40,29.73,10.0,SSW,28.8,40.3,N/A,,Unknown,200,2013-02-06 05:53:00
11:53 PM,39.9,19.0,43,29.74,10.0,SW,18.4,27.6,N/A,,Clear,230,2013-02-06 06:53:00